Hagerstown, MD

2:56 AM EST on February 27, 2017 (GMT -0500)
Hagerstown Regional-Henson

Weather History for KHGR - February, 2014

Change the Weather History Date:

Wednesday, February 19, 2014

  Actual Average Record
Temperature  
Mean Temperature 40 °F 34 °F  
Max Temperature 53 °F 42 °F 68 °F (2017)
Min Temperature 27 °F 26 °F 3 °F (2015)
Degree Days  
Heating Degree Days 25 31  
Month to date heating degree days 683 612  
Since 1 July heating degree days 3724 3636  
Cooling Degree Days 0 0  
Month to date cooling degree days 0 0  
Year to date cooling degree days 0 0  
Moisture  
Dew Point 30 °F    
Average Humidity 78    
Maximum Humidity 96    
Minimum Humidity 59    
Precipitation  
Precipitation 0.20 in 0.10 in 0.20 in (2014)
Month to date precipitation 2.31 1.76  
Year to date precipitation 3.58 4.44  
Sea Level Pressure  
Sea Level Pressure 29.89 in    
Wind  
Wind Speed 5 mph (NW)    
Max Wind Speed 18 mph    
Max Gust Speed 21 mph    
Visibility 5 miles    
Events Rain    
T = Trace of Precipitation, MM = Missing Value Source: NWS Daily Summary

Daily Weather History Graph

Daily Weather History Graph

Search for Another Location

Airport or City:

Trip Planner

Search our weather history database for the weather conditions in past years. The results will help you decide how hot, cold, wet, or windy it might be!

Date:

Astronomy

Feb. 19, 2014 Rise Set
Actual Time 6:58 AM EST 5:51 PM EST
Civil Twilight 6:30 AM EST 6:19 PM EST
Nautical Twilight 5:59 AM EST 6:50 PM EST
Astronomical Twilight 5:28 AM EST 7:22 PM EST
Moon 10:42 PM EST (2/19) 9:03 AM EST (2/19)
Length of Visible Light 11h 48m
Length of Day
10h 53m
Waning Gibbous, 80% of the Moon is Illuminated
Feb 19
Waning Gibbous
Feb 22
Last Quarter
Mar 1
New
Mar 8
First Quarter
Mar 16
Full

Hourly Weather History & Observations

Time (EST) Temp. Windchill Dew Point Humidity Pressure Visibility Wind Dir Wind Speed Gust Speed Precip Events Conditions
12:53 AM 30.9 °F - 25.0 °F 79% 30.06 in 9.0 mi Calm Calm - N/A   Clear
1:53 AM 28.9 °F 23.9 °F 24.1 °F 82% 30.02 in 8.0 mi NW 4.6 mph - N/A   Clear
2:53 AM 30.0 °F 24.1 °F 25.0 °F 82% 29.99 in 6.0 mi NW 5.8 mph - N/A   Haze
3:53 AM 30.0 °F - 24.1 °F 79% 29.95 in 6.0 mi Calm Calm - N/A   Haze
4:53 AM 28.0 °F 24.2 °F 23.0 °F 81% 29.91 in 5.0 mi NW 3.5 mph - N/A   Haze
5:53 AM 27.0 °F 18.7 °F 25.0 °F 92% 29.88 in 4.0 mi NW 8.1 mph - N/A   Mostly Cloudy
6:53 AM 28.0 °F 17.0 °F 25.0 °F 88% 29.88 in 4.0 mi NW 13.8 mph - 0.00 in   Overcast
7:04 AM 28.9 °F 21.1 °F 26.1 °F 89% 29.84 in 2.5 mi NW 8.1 mph - 0.02 in Rain Light Freezing Rain
7:34 AM 30.0 °F 22.4 °F 28.0 °F 92% 29.83 in 3.0 mi East 8.1 mph - 0.06 in Rain Light Freezing Rain
7:53 AM 30.9 °F 25.2 °F 28.9 °F 92% 29.86 in 3.0 mi NNE 5.8 mph - 0.08 in Rain Light Freezing Rain
8:00 AM 32.0 °F 28.7 °F 30.0 °F 92% 29.83 in 2.0 mi NNE 3.5 mph - 0.01 in Rain Light Freezing Rain
8:15 AM 32.0 °F 27.5 °F 28.9 °F 88% 29.83 in 1.8 mi NW 4.6 mph - 0.03 in   Overcast
8:53 AM 32.0 °F 27.5 °F 30.0 °F 92% 29.86 in 1.0 mi NW 4.6 mph - 0.08 in   Overcast
9:53 AM 32.0 °F 25.6 °F 30.9 °F 96% 29.86 in 1.2 mi NW 6.9 mph - 0.01 in   Mostly Cloudy
10:53 AM 34.0 °F - 32.0 °F 92% 29.83 in - Calm Calm - N/A   Overcast
11:43 AM 37.0 °F - 33.1 °F 86% 29.76 in 1.5 mi Calm Calm - N/A   Mostly Cloudy
11:53 AM 37.9 °F 34.4 °F 34.0 °F 86% 29.81 in 1.8 mi NW 4.6 mph - N/A   Scattered Clouds
12:03 PM 37.0 °F 33.3 °F 34.0 °F 89% 29.76 in 2.5 mi WNW 4.6 mph - N/A   Partly Cloudy
12:20 PM 37.0 °F 33.3 °F 34.0 °F 89% 29.75 in 1.5 mi NW 4.6 mph - N/A   Clear
12:45 PM 37.9 °F 34.4 °F 34.0 °F 86% 29.73 in 2.0 mi NW 4.6 mph - N/A   Partly Cloudy
12:53 PM 39.0 °F 35.7 °F 34.0 °F 82% 29.78 in 2.5 mi NW 4.6 mph - N/A   Haze
1:05 PM 39.0 °F 34.8 °F 34.0 °F 82% 29.73 in 3.0 mi NW 5.8 mph - N/A   Haze
1:53 PM 44.1 °F - 34.0 °F 68% 29.76 in 4.0 mi Calm Calm - N/A   Haze
2:53 PM 45.0 °F 42.6 °F 39.9 °F 82% 29.76 in 5.0 mi South 4.6 mph - 0.03 in   Haze
3:53 PM 52.0 °F - 37.9 °F 59% 29.78 in 10.0 mi SW 11.5 mph 19.6 mph N/A   Partly Cloudy
4:53 PM 51.1 °F - 28.9 °F 43% 29.84 in 10.0 mi West 19.6 mph 39.1 mph N/A   Clear
5:53 PM 50.0 °F - 27.0 °F 41% 29.91 in 10.0 mi West 27.6 mph 36.8 mph N/A   Clear
6:53 PM 46.0 °F 37.8 °F 30.0 °F 54% 29.99 in 10.0 mi WNW 23.0 mph 32.2 mph N/A   Clear
7:53 PM 44.1 °F 36.2 °F 30.0 °F 58% 30.06 in 10.0 mi WNW 18.4 mph - N/A   Clear
8:53 PM 43.0 °F 34.8 °F 30.0 °F 60% 30.09 in 10.0 mi WNW 18.4 mph 28.8 mph N/A   Clear
9:53 PM 43.0 °F 41.3 °F 28.9 °F 58% 30.14 in 10.0 mi North 3.5 mph - N/A   Clear
10:53 PM 39.9 °F 32.1 °F 28.0 °F 63% 30.16 in 10.0 mi WNW 13.8 mph - N/A   Clear
11:53 PM 39.0 °F 34.0 °F 27.0 °F 62% 30.17 in 10.0 mi NW 6.9 mph - N/A   Clear